Lid_Strength_Index
-1 -1 -1 -1 -2 -2 -1 -1 -1 -1 -1 -1 -1 -1 -1 -1 -1 -2 -2 -1 -2 -1 -1 -1 -1 -0 -0 0 1 2 3 3 2 2 2 2 3 3 3 3 3 3 2
-1 -1 -1 -1 -1 -1 -1 -1 -1 -1 -1 -1 -1 -1 -1 -1 -1 -1 -1 -2 -2 -2 -2 -1 -1 -1 -0 0 1 2 2 3 3 3 2 3 3 3 3 3 4 3 3
-2 -2 -1 -1 -1 -2 -2 -1 -1 -1 -1 -1 -1 -1 -1 -1 -1 -2 -2 -1 -2 -2 -2 -2 -2 -1 -1 -0 -0 1 2 3 3 3 3 3 3 3 3 3 4 4 2
-2 -1 -1 -1 -1 -1 -1 -1 -1 -0 -0 -0 -0 -1 -1 -1 -1 -1 -1 -1 -1 -2 -1 -2 -2 -2 -2 -1 -1 -0 1 2 3 4 4 4 4 4 4 4 4 4 3
-2 -1 -1 -1 -2 -1 -1 -1 -0 -0 0 0 0 -0 -1 -1 -1 -1 -1 -1 -2 -2 -2 -1 -2 -2 -2 -2 -2 -1 -0 1 3 3 4 4 3 4 4 4 4 4 3
-2 -1 -1 -1 -1 -1 -0 -0 -0 -0 -0 0 0 0 -0 -1 -1 -1 -1 -1 -1 -2 -2 -1 -1 -1 -2 -2 -2 -2 -2 0 2 3 4 4 4 4 5 4 4 4 3
-2 -2 -1 -1 -1 -0 -1 -1 -0 -0 1 -0 -0 0 1 -0 -1 -1 -1 -1 -1 -1 -2 -1 -1 -1 -2 -2 -2 -2 -2 -1 1 3 5 5 5 5 4 4 4 4 4
-2 -1 -1 -1 -1 -0 -1 -0 -0 1 1 -0 2 2 3 2 0 -0 -1 -1 -1 -1 -1 -1 -1 -1 -1 -2 -2 -2 -1 -2 0 2 4 5 5 5 5 5 5 4 4
-1 -1 -1 -1 -1 -1 0 -0 -0 -0 1 0 -0 2 3 4 2 0 -0 -1 -1 -1 -1 -1 -2 -2 -1 -1 -2 -2 -1 -1 -1 1 3 5 5 5 5 5 5 4 4
-1 -1 -1 -1 -1 -1 -1 -0 -0 -0 0 2 1 0 -0 1 3 3 1 0 -0 -0 -1 -1 -2 -2 -1 -1 -1 -1 -1 -1 -1 1 3 4 5 5 5 5 5 4 3
-1 -1 -1 -1 -1 -0 -1 -1 -1 -0 0 1 1 1 0 1 0 2 3 2 0 -0 -2 -2 -1 -1 -1 -1 -2 -1 -1 -1 0 3 4 5 5 6 5 5 5 4 1
-0 -1 -1 -1 -1 -1 -1 -0 -1 -1 -0 -1 -0 0 1 2 2 2 2 1 2 -0 -1 -2 -1 -1 -1 -1 -1 -1 -0 -0 2 4 5 6 7 7 5 5 5 4 2
0 -0 -1 -0 -0 -1 -1 -1 -1 -1 -0 -0 -0 0 -0 0 -1 0 1 1 2 -0 -0 -0 -0 -1 -1 -1 -1 -1 -1 2 4 5 6 7 7 7 6 6 5 5 4
-0 -1 -0 -1 -1 -1 -1 -1 -0 -0 -1 -0 -1 -1 -0 -0 -0 -0 1 1 2 2 1 1 -0 -0 -1 -1 -0 -0 2 4 5 7 7 8 8 8 7 7 6 6 6
-0 -1 -1 -1 -1 -1 -1 -1 -0 -0 -1 -0 -0 -1 -0 -0 -1 -1 -0 0 2 3 2 2 1 -1 -1 -1 -0 2 4 5 6 7 8 8 9 9 8 8 8 7 7
-1 -1 -0 -0 -0 -1 -1 -1 -0 -1 -0 -0 -0 -1 -1 -1 -1 -0 -0 -0 0 1 3 1 1 -0 -1 1 1 3 4 5 7 8 8 9 9 9 8 9 9 8 8
-0 -0 -0 -0 -0 -0 -0 -0 -0 -0 0 -0 -0 -0 -0 -1 -0 -0 -0 -0 0 1 2 2 1 -0 1 2 3 4 4 5 6 7 8 9 9 9 9 9 9 9 9
-0 -0 -0 -0 -0 -0 -0 -0 0 0 0 1 0 0 0 0 -0 -1 -0 -1 -0 -0 1 1 1 1 2 2 4 5 5 6 5 6 9 9 9 9 8 9 9 9 10
0 -0 -0 0 0 0 0 -0 0 0 0 0 0 1 0 0 1 0 -0 0 0 0 0 1 2 1 2 3 4 5 5 5 6 7 9 9 8 8 9 9 10 10 10
1 1 0 -0 0 0 -0 -0 0 0 0 0 0 0 0 0 0 0 0 -0 -0 0 0 1 1 2 1 1 2 5 7 6 6 7 9 7 9 10 9 9 10 9 10
-0 -0 0 0 -0 0 0 0 0 0 0 1 1 1 0 0 1 1 0 0 0 1 1 1 1 1 2 2 2 3 5 6 7 6 8 9 9 9 9 9 10 10 10
-0 -0 0 0 0 0 5 5 3 1 1 1 2 1 1 1 1 3 2 1 1 0 0 1 1 1 0 1 1 1 3 7 8 6 7 10 10 10 8 9 11 11 11
0 0 0 0 1 -0 6 6 6 0 0 1 1 1 1 0 1 0 3 2 2 2 2 -1 0 1 0 -0 -0 1 1 3 5 6 7 9 10 10 9 9 11 11 12
0 1 1 1 0 0 6 7 8 -0 0 1 1 1 1 1 1 1 0 0 -0 -0 -1 -0 -1 -1 -1 -2 -1 -0 0 2 5 6 6 7 9 10 9 9 11 12 12
0 0 0 1 1 0 7 7 5 0 1 1 1 1 2 1 3 6 1 1 0 -0 2 3 6 7 7 6 2 -0 1 2 5 6 6 6 9 11 10 10 10 12 13
0 0 0 0 1 1 5 7 4 0 1 1 1 1 5 2 6 7 0 1 1 1 0 -0 -0 2 3 1 5 -1 0 2 2 6 4 6 9 10 12 10 9 8 9